TimeCDT,TemperatureF,Dew PointF,Humidity,Sea Level PressureIn,VisibilityMPH,Wind Direction,Wind SpeedMPH,Gust SpeedMPH,PrecipitationIn,Events,Conditions,WindDirDegrees,DateUTC
12:57 AM,64.9,60.1,84,30.11,10.0,East,5.8,-,N/A,,Clear,80,2013-08-18 05:57:00
1:57 AM,63.0,60.1,90,30.11,9.0,East,4.6,-,N/A,,Clear,80,2013-08-18 06:57:00
2:57 AM,61.0,59.0,93,30.11,6.0,Calm,Calm,-,N/A,,Clear,0,2013-08-18 07:57:00
3:57 AM,61.0,59.0,93,30.11,5.0,NE,3.5,-,N/A,,Clear,50,2013-08-18 08:57:00
4:57 AM,64.0,61.0,90,30.10,7.0,East,6.9,-,N/A,,Clear,90,2013-08-18 09:57:00
5:57 AM,64.0,61.0,90,30.11,7.0,East,8.1,-,N/A,,Clear,90,2013-08-18 10:57:00
6:57 AM,64.0,62.1,93,30.13,3.0,East,6.9,-,N/A,,Clear,90,2013-08-18 11:57:00
7:30 AM,64.4,62.6,94,30.16,3.0,East,3.5,-,N/A,,Partly Cloudy,100,2013-08-18 12:30:00
7:57 AM,66.0,63.0,90,30.14,4.0,Calm,Calm,-,N/A,,Partly Cloudy,0,2013-08-18 12:57:00
8:57 AM,70.0,64.0,81,30.15,10.0,East,4.6,-,N/A,,Clear,100,2013-08-18 13:57:00
9:57 AM,73.9,64.0,71,30.15,10.0,East,5.8,-,N/A,,Clear,80,2013-08-18 14:57:00
10:57 AM,75.9,63.0,64,30.15,10.0,ESE,3.5,-,N/A,,Clear,120,2013-08-18 15:57:00
11:57 AM,77.0,62.1,60,30.15,10.0,ESE,8.1,-,N/A,,Mostly Cloudy,120,2013-08-18 16:57:00
12:57 PM,78.1,62.1,58,30.13,10.0,ESE,3.5,-,N/A,,Scattered Clouds,110,2013-08-18 17:57:00
1:57 PM,79.0,61.0,54,30.12,10.0,East,5.8,-,N/A,,Scattered Clouds,90,2013-08-18 18:57:00
2:57 PM,80.1,57.9,47,30.10,10.0,East,9.2,-,N/A,,Clear,90,2013-08-18 19:57:00
3:57 PM,81.0,55.9,42,30.09,10.0,Variable,4.6,-,N/A,,Clear,0,2013-08-18 20:57:00
4:57 PM,80.1,57.9,47,30.08,10.0,ENE,4.6,-,N/A,,Clear,60,2013-08-18 21:57:00
5:57 PM,80.1,59.0,48,30.07,10.0,East,5.8,-,N/A,,Clear,90,2013-08-18 22:57:00
6:57 PM,79.0,61.0,54,30.07,10.0,East,4.6,-,N/A,,Clear,100,2013-08-18 23:57:00
7:57 PM,77.0,62.1,60,30.07,10.0,East,4.6,-,N/A,,Clear,90,2013-08-19 00:57:00
8:57 PM,70.0,64.0,81,30.08,10.0,East,3.5,-,N/A,,Clear,80,2013-08-19 01:57:00
9:57 PM,72.0,64.0,76,30.09,10.0,East,4.6,-,N/A,,Clear,90,2013-08-19 02:57:00
10:57 PM,70.0,64.0,81,30.10,10.0,East,5.8,-,N/A,,Clear,100,2013-08-19 03:57:00
11:57 PM,69.1,64.0,84,30.11,10.0,ESE,4.6,-,N/A,,Clear,120,2013-08-19 04:57:00